M I D A S
Marine Information and Data Acquisition System
Tripno 822 of the Zeeleeuw from 2004-12-17 08:20:03 to 2004-12-17 16:27:23
Back to CruiseResearch ActivitiesStationsMapUnderway DataData graphs

EquipmentUnitsComments
TimeDGPSUTC
LatitudeDGPSDM.mWGS84
LongitudeDGPSDM.mWGS84
SpeedMeteo Stationm/sRelative wind speed
DirectionMeteo StationdegRelative wind direction
TemperatureMeteo Stationdeg CelciusAir temperature
PressureMeteo StationPaAtmospheric pressure
HumidityMeteo Station%Relative humidity
Missing or incorrect values are displayed as -999
Metereological data collected by the RV Zeeleeuw from 2004-12-17 06:34:48 to 2004-12-17 17:09:45
Time Latitude Longitude Speed Direction Temperature Pressure Humidity
2004-12-17 06:35 51°13.599 2°56.104 -999 -999 -999 -999 -999
2004-12-17 06:36 51°13.596 2°56.102 -999 -999 -999 -999 -999
2004-12-17 06:37 51°13.596 2°56.101 -999 -999 -999 -999 -999
2004-12-17 06:38 51°13.595 2°56.101 -999 -999 -999 -999 -999
2004-12-17 06:39 51°13.595 2°56.101 -999 -999 -999 -999 -999
2004-12-17 06:40 51°13.595 2°56.101 -999 -999 -999 -999 -999
2004-12-17 06:41 51°13.596 2°56.101 -999 -999 -999 -999 -999
2004-12-17 06:42 51°13.596 2°56.101 -999 -999 -999 -999 -999
2004-12-17 06:43 51°13.596 2°56.101 -999 -999 -999 -999 -999
2004-12-17 06:44 51°13.596 2°56.102 -999 -999 -999 -999 -999
2004-12-17 06:45 51°13.594 2°56.102 -999 -999 -999 -999 -999
2004-12-17 06:46 51°13.593 2°56.102 -999 -999 -999 -999 -999
2004-12-17 06:47 51°13.594 2°56.102 -999 -999 -999 -999 -999
2004-12-17 06:48 51°13.594 2°56.102 -999 -999 -999 -999 -999
2004-12-17 06:49 51°13.595 2°56.102 -999 -999 -999 -999 -999
2004-12-17 06:50 51°13.596 2°56.102 -999 -999 -999 -999 -999
2004-12-17 06:51 51°13.596 2°56.102 -999 -999 -999 -999 -999
2004-12-17 06:52 51°13.595 2°56.102 -999 -999 -999 -999 -999
2004-12-17 06:53 51°13.594 2°56.102 -999 -999 -999 -999 -999
2004-12-17 06:54 51°13.595 2°56.103 -999 -999 -999 -999 -999
2004-12-17 06:55 51°13.594 2°56.104 -999 -999 -999 -999 -999
2004-12-17 06:56 51°13.592 2°56.103 -999 -999 -999 -999 -999
2004-12-17 06:57 51°13.592 2°56.102 -999 -999 -999 -999 -999
2004-12-17 06:58 51°13.591 2°56.102 -999 -999 -999 -999 -999
2004-12-17 06:59 51°13.593 2°56.102 -999 -999 -999 -999 -999
2004-12-17 07:00 51°13.593 2°56.102 -999 -999 -999 -999 -999
2004-12-17 07:01 51°13.594 2°56.102 -999 -999 -999 -999 -999
2004-12-17 07:02 51°13.594 2°56.102 -999 -999 -999 -999 -999
2004-12-17 07:03 51°13.595 2°56.102 -999 -999 -999 -999 -999
2004-12-17 07:04 51°13.596 2°56.102 -999 -999 -999 -999 -999
2004-12-17 07:05 51°13.597 2°56.102 -999 -999 -999 -999 -999
2004-12-17 07:06 51°13.596 2°56.102 -999 -999 -999 -999 -999
2004-12-17 07:07 51°13.596 2°56.101 -999 -999 -999 -999 -999
2004-12-17 07:08 51°13.596 2°56.101 -999 -999 -999 -999 -999
2004-12-17 07:09 51°13.596 2°56.101 -999 -999 -999 -999 -999
2004-12-17 07:10 51°13.596 2°56.101 -999 -999 -999 -999 -999
2004-12-17 07:11 51°13.596 2°56.102 -999 -999 -999 -999 -999
2004-12-17 07:12 51°13.596 2°56.101 -999 -999 -999 -999 -999
2004-12-17 07:13 51°13.596 2°56.102 -999 -999 -999 -999 -999
2004-12-17 07:14 51°13.596 2°56.102 -999 -999 -999 -999 -999
2004-12-17 07:15 51°13.596 2°56.102 -999 -999 -999 -999 -999
2004-12-17 07:16 51°13.596 2°56.101 -999 -999 -999 -999 -999
2004-12-17 07:17 51°13.597 2°56.101 -999 -999 -999 -999 -999
2004-12-17 07:18 51°13.596 2°56.102 -999 -999 -999 -999 -999
2004-12-17 07:19 51°13.596 2°56.102 -999 -999 -999 -999 -999
2004-12-17 07:20 51°13.596 2°56.102 -999 -999 -999 -999 -999
2004-12-17 07:21 51°13.596 2°56.102 -999 -999 -999 -999 -999
2004-12-17 07:22 51°13.595 2°56.101 -999 -999 -999 -999 -999
2004-12-17 07:23 51°13.595 2°56.101 -999 -999 -999 -999 -999
2004-12-17 07:24 51°13.595 2°56.102 -999 -999 -999 -999 -999
2004-12-17 07:25 51°13.595 2°56.102 -999 -999 -999 -999 -999
2004-12-17 07:26 51°13.595 2°56.102 -999 -999 -999 -999 -999
2004-12-17 07:27 51°13.594 2°56.102 -999 -999 -999 -999 -999
2004-12-17 07:28 51°13.595 2°56.102 -999 -999 -999 -999 -999
2004-12-17 07:29 51°13.596 2°56.101 -999 -999 -999 -999 -999
2004-12-17 07:30 51°13.596 2°56.101 -999 -999 -999 -999 -999
2004-12-17 07:31 51°13.595 2°56.101 -999 -999 -999 -999 -999
2004-12-17 07:32 51°13.595 2°56.101 -999 -999 -999 -999 -999
2004-12-17 07:33 51°13.595 2°56.102 -999 -999 -999 -999 -999
2004-12-17 07:34 51°13.596 2°56.102 -999 -999 -999 -999 -999
2004-12-17 07:35 51°13.596 2°56.102 -999 -999 -999 -999 -999
2004-12-17 07:36 51°13.596 2°56.103 -999 -999 -999 -999 -999
2004-12-17 07:37 51°13.595 2°56.103 -999 -999 -999 -999 -999
2004-12-17 07:38 51°13.595 2°56.102 -999 -999 -999 -999 -999
2004-12-17 07:39 51°13.595 2°56.102 -999 -999 -999 -999 -999
2004-12-17 07:40 51°13.595 2°56.103 -999 -999 -999 -999 -999
2004-12-17 07:41 51°13.595 2°56.103 -999 -999 -999 -999 -999
2004-12-17 07:42 51°13.595 2°56.103 -999 -999 -999 -999 -999
2004-12-17 07:43 51°13.594 2°56.103 -999 -999 -999 -999 -999
2004-12-17 07:44 51°13.595 2°56.104 -999 -999 -999 -999 -999
2004-12-17 07:45 51°13.595 2°56.104 -999 -999 -999 -999 -999
2004-12-17 07:46 51°13.594 2°56.104 -999 -999 -999 -999 -999
2004-12-17 07:47 51°13.594 2°56.103 -999 -999 -999 -999 -999
2004-12-17 07:48 51°13.593 2°56.103 -999 -999 -999 -999 -999
2004-12-17 07:49 51°13.593 2°56.103 -999 -999 -999 -999 -999
2004-12-17 07:50 51°13.593 2°56.102 -999 -999 -999 -999 -999
2004-12-17 07:51 51°13.593 2°56.103 -999 -999 -999 -999 -999
2004-12-17 07:52 51°13.593 2°56.103 -999 -999 -999 -999 -999
2004-12-17 07:53 51°13.593 2°56.104 -999 -999 -999 -999 -999
2004-12-17 07:54 51°13.593 2°56.103 -999 -999 -999 -999 -999
2004-12-17 07:55 51°13.593 2°56.104 -999 -999 -999 -999 -999
2004-12-17 07:56 51°13.594 2°56.102 -999 -999 -999 -999 -999
2004-12-17 07:57 51°13.594 2°56.103 -999 -999 -999 -999 -999
2004-12-17 07:58 51°13.594 2°56.102 -999 -999 -999 -999 -999
2004-12-17 07:59 51°13.595 2°56.102 -999 -999 -999 -999 -999
2004-12-17 08:00 51°13.595 2°56.102 -999 -999 -999 -999 -999
2004-12-17 08:01 51°13.596 2°56.101 -999 -999 -999 -999 -999
2004-12-17 08:02 51°13.596 2°56.101 -999 -999 -999 -999 -999
2004-12-17 08:03 51°13.593 2°56.102 -999 -999 -999 -999 -999
2004-12-17 08:04 51°13.596 2°56.101 -999 -999 -999 -999 -999
2004-12-17 08:05 51°13.595 2°56.101 -999 -999 -999 -999 -999
2004-12-17 08:06 51°13.595 2°56.101 -999 -999 -999 -999 -999
2004-12-17 08:07 51°13.595 2°56.101 -999 -999 -999 -999 -999
2004-12-17 08:08 51°13.595 2°56.103 -999 -999 -999 -999 -999
2004-12-17 08:09 51°13.595 2°56.103 -999 -999 -999 -999 -999
2004-12-17 08:10 51°13.595 2°56.103 -999 -999 -999 -999 -999
2004-12-17 08:11 51°13.595 2°56.103 -999 -999 -999 -999 -999
2004-12-17 08:12 51°13.595 2°56.103 -999 -999 -999 -999 -999
2004-12-17 08:13 51°13.595 2°56.103 -999 -999 -999 -999 -999
2004-12-17 08:14 51°13.595 2°56.104 -999 -999 -999 -999 -999
2004-12-17 08:15 51°13.595 2°56.103 -999 -999 -999 -999 -999
2004-12-17 08:16 51°13.594 2°56.102 -999 -999 -999 -999 -999
2004-12-17 08:17 51°13.594 2°56.1 -999 -999 -999 -999 -999
2004-12-17 08:18 51°13.594 2°56.1 -999 -999 -999 -999 -999
2004-12-17 08:19 51°13.598 2°56.084 -999 -999 -999 -999 -999
2004-12-17 08:20 51°13.621 2°56.007 -999 -999 -999 -999 -999
2004-12-17 08:21 51°13.652 2°55.913 -999 -999 -999 -999 -999
2004-12-17 08:22 51°13.689 2°55.819 -999 -999 -999 -999 -999
2004-12-17 08:23 51°13.71 2°55.757 -999 -999 -999 -999 -999
2004-12-17 08:24 51°13.708 2°55.737 -999 -999 -999 -999 -999
2004-12-17 08:25 51°13.766 2°55.707 -999 -999 -999 -999 -999
2004-12-17 08:26 51°13.879 2°55.587 -999 -999 -999 -999 -999
2004-12-17 08:27 51°14.032 2°55.478 -999 -999 -999 -999 -999
2004-12-17 08:28 51°14.19 2°55.362 -999 -999 -999 -999 -999
2004-12-17 08:29 51°14.332 2°55.143 -999 -999 -999 -999 -999
2004-12-17 08:30 51°14.487 2°54.909 -999 -999 -999 -999 -999
2004-12-17 08:31 51°14.694 2°54.79 -999 -999 -999 -999 -999
2004-12-17 08:32 51°14.913 2°54.72 -999 -999 -999 -999 -999
2004-12-17 08:33 51°15.131 2°54.661 -999 -999 -999 -999 -999
2004-12-17 08:34 51°15.35 2°54.606 -999 -999 -999 -999 -999
2004-12-17 08:35 51°15.573 2°54.549 -999 -999 -999 -999 -999
2004-12-17 08:36 51°15.797 2°54.494 -999 -999 -999 -999 -999
2004-12-17 08:37 51°16.018 2°54.426 -999 -999 -999 -999 -999
2004-12-17 08:38 51°16.176 2°54.349 -999 -999 -999 -999 -999
2004-12-17 08:39 51°16.261 2°54.307 -999 -999 -999 -999 -999
2004-12-17 08:40 51°16.282 2°54.304 -999 -999 -999 -999 -999
2004-12-17 08:41 51°16.298 2°54.309 -999 -999 -999 -999 -999
2004-12-17 08:42 51°16.316 2°54.313 -999 -999 -999 -999 -999
2004-12-17 08:43 51°16.353 2°54.315 -999 -999 -999 -999 -999
2004-12-17 08:44 51°16.4 2°54.313 -999 -999 -999 -999 -999
2004-12-17 08:45 51°16.447 2°54.311 -999 -999 -999 -999 -999
2004-12-17 08:46 51°16.492 2°54.34 -999 -999 -999 -999 -999
2004-12-17 08:47 51°16.505 2°54.405 -999 -999 -999 -999 -999
2004-12-17 08:48 51°16.502 2°54.474 -999 -999 -999 -999 -999
2004-12-17 08:49 51°16.499 2°54.545 -999 -999 -999 -999 -999
2004-12-17 08:50 51°16.496 2°54.618 -999 -999 -999 -999 -999
2004-12-17 08:51 51°16.49 2°54.696 -999 -999 -999 -999 -999
2004-12-17 08:52 51°16.486 2°54.771 -999 -999 -999 -999 -999
2004-12-17 08:53 51°16.489 2°54.845 -999 -999 -999 -999 -999
2004-12-17 08:54 51°16.49 2°54.919 -999 -999 -999 -999 -999
2004-12-17 08:55 51°16.49 2°54.994 -999 -999 -999 -999 -999
2004-12-17 08:56 51°16.489 2°55.068 -999 -999 -999 -999 -999
2004-12-17 08:57 51°16.487 2°55.141 -999 -999 -999 -999 -999
2004-12-17 08:58 51°16.489 2°55.215 -999 -999 -999 -999 -999
2004-12-17 08:59 51°16.491 2°55.29 -999 -999 -999 -999 -999
2004-12-17 09:00 51°16.486 2°55.362 -999 -999 -999 -999 -999
2004-12-17 09:01 51°16.479 2°55.431 -999 -999 -999 -999 -999
2004-12-17 09:02 51°16.475 2°55.501 -999 -999 -999 -999 -999
2004-12-17 09:03 51°16.469 2°55.571 -999 -999 -999 -999 -999
2004-12-17 09:04 51°16.464 2°55.64 -999 -999 -999 -999 -999
2004-12-17 09:05 51°16.464 2°55.71 -999 -999 -999 -999 -999
2004-12-17 09:06 51°16.462 2°55.78 -999 -999 -999 -999 -999
2004-12-17 09:07 51°16.454 2°55.848 -999 -999 -999 -999 -999
2004-12-17 09:08 51°16.447 2°55.916 -999 -999 -999 -999 -999
2004-12-17 09:09 51°16.445 2°55.984 -999 -999 -999 -999 -999
2004-12-17 09:10 51°16.443 2°56.052 -999 -999 -999 -999 -999
2004-12-17 09:11 51°16.443 2°56.12 -999 -999 -999 -999 -999
2004-12-17 09:12 51°16.443 2°56.188 -999 -999 -999 -999 -999
2004-12-17 09:13 51°16.438 2°56.256 -999 -999 -999 -999 -999
2004-12-17 09:14 51°16.432 2°56.325 -999 -999 -999 -999 -999
2004-12-17 09:15 51°16.43 2°56.394 -999 -999 -999 -999 -999
2004-12-17 09:16 51°16.417 2°56.454 -999 -999 -999 -999 -999
2004-12-17 09:17 51°16.401 2°56.486 -999 -999 -999 -999 -999
2004-12-17 09:18 51°16.388 2°56.501 -999 -999 -999 -999 -999
2004-12-17 09:19 51°16.38 2°56.506 -999 -999 -999 -999 -999
2004-12-17 09:20 51°16.374 2°56.505 -999 -999 -999 -999 -999
2004-12-17 09:21 51°16.371 2°56.501 -999 -999 -999 -999 -999
2004-12-17 09:22 51°16.369 2°56.498 -999 -999 -999 -999 -999
2004-12-17 09:23 51°16.344 2°56.504 -999 -999 -999 -999 -999
2004-12-17 09:24 51°16.298 2°56.467 -999 -999 -999 -999 -999
2004-12-17 09:25 51°16.265 2°56.384 -999 -999 -999 -999 -999
2004-12-17 09:26 51°16.254 2°56.294 -999 -999 -999 -999 -999
2004-12-17 09:27 51°16.249 2°56.21 -999 -999 -999 -999 -999
2004-12-17 09:28 51°16.243 2°56.13 -999 -999 -999 -999 -999
2004-12-17 09:29 51°16.238 2°56.056 -999 -999 -999 -999 -999
2004-12-17 09:30 51°16.238 2°55.98 -999 -999 -999 -999 -999
2004-12-17 09:31 51°16.238 2°55.903 -999 -999 -999 -999 -999
2004-12-17 09:32 51°16.239 2°55.827 -999 -999 -999 -999 -999
2004-12-17 09:33 51°16.241 2°55.751 -999 -999 -999 -999 -999
2004-12-17 09:34 51°16.244 2°55.674 -999 -999 -999 -999 -999
2004-12-17 09:35 51°16.248 2°55.596 -999 -999 -999 -999 -999
2004-12-17 09:36 51°16.252 2°55.518 -999 -999 -999 -999 -999
2004-12-17 09:37 51°16.256 2°55.44 -999 -999 -999 -999 -999
2004-12-17 09:38 51°16.26 2°55.362 -999 -999 -999 -999 -999
2004-12-17 09:39 51°16.263 2°55.286 -999 -999 -999 -999 -999
2004-12-17 09:40 51°16.268 2°55.213 -999 -999 -999 -999 -999
2004-12-17 09:41 51°16.276 2°55.14 -999 -999 -999 -999 -999
2004-12-17 09:42 51°16.283 2°55.068 -999 -999 -999 -999 -999
2004-12-17 09:43 51°16.293 2°54.997 -999 -999 -999 -999 -999
2004-12-17 09:44 51°16.306 2°54.927 -999 -999 -999 -999 -999
2004-12-17 09:45 51°16.323 2°54.862 -999 -999 -999 -999 -999
2004-12-17 09:46 51°16.345 2°54.796 -999 -999 -999 -999 -999
2004-12-17 09:47 51°16.366 2°54.724 -999 -999 -999 -999 -999
2004-12-17 09:48 51°16.388 2°54.649 -999 -999 -999 -999 -999
2004-12-17 09:49 51°16.416 2°54.579 -999 -999 -999 -999 -999
2004-12-17 09:50 51°16.442 2°54.514 -999 -999 -999 -999 -999
2004-12-17 09:51 51°16.469 2°54.445 -999 -999 -999 -999 -999
2004-12-17 09:52 51°16.497 2°54.375 -999 -999 -999 -999 -999
2004-12-17 09:53 51°16.526 2°54.312 -999 -999 -999 -999 -999
2004-12-17 09:54 51°16.557 2°54.251 -999 -999 -999 -999 -999
2004-12-17 09:55 51°16.588 2°54.199 -999 -999 -999 -999 -999
2004-12-17 09:56 51°16.614 2°54.151 -999 -999 -999 -999 -999
2004-12-17 09:57 51°16.629 2°54.107 -999 -999 -999 -999 -999
2004-12-17 09:58 51°16.637 2°54.07 -999 -999 -999 -999 -999
2004-12-17 09:59 51°16.641 2°54.042 -999 -999 -999 -999 -999
2004-12-17 10:00 51°16.644 2°54.018 -999 -999 -999 -999 -999
2004-12-17 10:01 51°16.648 2°53.994 -999 -999 -999 -999 -999
2004-12-17 10:02 51°16.658 2°53.925 -999 -999 -999 -999 -999
2004-12-17 10:03 51°16.686 2°53.748 -999 -999 -999 -999 -999
2004-12-17 10:04 51°16.756 2°53.472 -999 -999 -999 -999 -999
2004-12-17 10:05 51°16.863 2°53.199 -999 -999 -999 -999 -999
2004-12-17 10:06 51°16.992 2°52.964 -999 -999 -999 -999 -999
2004-12-17 10:07 51°17.125 2°52.721 -999 -999 -999 -999 -999
2004-12-17 10:08 51°17.263 2°52.495 -999 -999 -999 -999 -999
2004-12-17 10:09 51°17.408 2°52.283 -999 -999 -999 -999 -999
2004-12-17 10:10 51°17.561 2°52.089 -999 -999 -999 -999 -999
2004-12-17 10:11 51°17.715 2°51.895 -999 -999 -999 -999 -999
2004-12-17 10:12 51°17.869 2°51.702 -999 -999 -999 -999 -999
2004-12-17 10:13 51°18.024 2°51.504 -999 -999 -999 -999 -999
2004-12-17 10:14 51°18.179 2°51.309 -999 -999 -999 -999 -999
2004-12-17 10:15 51°18.334 2°51.11 -999 -999 -999 -999 -999
2004-12-17 10:16 51°18.44 2°50.964 -999 -999 -999 -999 -999
2004-12-17 10:17 51°18.481 2°50.903 -999 -999 -999 -999 -999
2004-12-17 10:18 51°18.494 2°50.877 -999 -999 -999 -999 -999
2004-12-17 10:19 51°18.503 2°50.851 -999 -999 -999 -999 -999
2004-12-17 10:20 51°18.535 2°50.786 -999 -999 -999 -999 -999
2004-12-17 10:21 51°18.589 2°50.745 -999 -999 -999 -999 -999
2004-12-17 10:22 51°18.642 2°50.736 -999 -999 -999 -999 -999
2004-12-17 10:23 51°18.69 2°50.748 -999 -999 -999 -999 -999
2004-12-17 10:24 51°18.727 2°50.787 -999 -999 -999 -999 -999
2004-12-17 10:25 51°18.758 2°50.833 -999 -999 -999 -999 -999
2004-12-17 10:26 51°18.798 2°50.881 -999 -999 -999 -999 -999
2004-12-17 10:27 51°18.841 2°50.936 -999 -999 -999 -999 -999
2004-12-17 10:28 51°18.878 2°50.993 -999 -999 -999 -999 -999
2004-12-17 10:29 51°18.915 2°51.046 -999 -999 -999 -999 -999
2004-12-17 10:30 51°18.952 2°51.097 -999 -999 -999 -999 -999
2004-12-17 10:31 51°18.985 2°51.153 -999 -999 -999 -999 -999
2004-12-17 10:32 51°19.01 2°51.217 -999 -999 -999 -999 -999
2004-12-17 10:33 51°19.036 2°51.281 -999 -999 -999 -999 -999
2004-12-17 10:34 51°19.065 2°51.339 -999 -999 -999 -999 -999
2004-12-17 10:35 51°19.099 2°51.391 -999 -999 -999 -999 -999
2004-12-17 10:36 51°19.133 2°51.447 -999 -999 -999 -999 -999
2004-12-17 10:37 51°19.168 2°51.502 -999 -999 -999 -999 -999
2004-12-17 10:38 51°19.204 2°51.557 -999 -999 -999 -999 -999
2004-12-17 10:39 51°19.24 2°51.611 -999 -999 -999 -999 -999
2004-12-17 10:40 51°19.272 2°51.672 -999 -999 -999 -999 -999
2004-12-17 10:41 51°19.302 2°51.732 -999 -999 -999 -999 -999
2004-12-17 10:42 51°19.335 2°51.786 -999 -999 -999 -999 -999
2004-12-17 10:43 51°19.371 2°51.838 -999 -999 -999 -999 -999
2004-12-17 10:44 51°19.405 2°51.892 -999 -999 -999 -999 -999
2004-12-17 10:45 51°19.437 2°51.949 -999 -999 -999 -999 -999
2004-12-17 10:46 51°19.466 2°52.008 -999 -999 -999 -999 -999
2004-12-17 10:47 51°19.497 2°52.062 -999 -999 -999 -999 -999
2004-12-17 10:48 51°19.534 2°52.107 -999 -999 -999 -999 -999
2004-12-17 10:49 51°19.574 2°52.148 -999 -999 -999 -999 -999
2004-12-17 10:50 51°19.603 2°52.197 -999 -999 -999 -999 -999
2004-12-17 10:51 51°19.614 2°52.231 -999 -999 -999 -999 -999
2004-12-17 10:52 51°19.613 2°52.254 -999 -999 -999 -999 -999
2004-12-17 10:53 51°19.603 2°52.277 -999 -999 -999 -999 -999
2004-12-17 10:54 51°19.569 2°52.309 -999 -999 -999 -999 -999
2004-12-17 10:55 51°19.512 2°52.307 -999 -999 -999 -999 -999
2004-12-17 10:56 51°19.46 2°52.267 -999 -999 -999 -999 -999
2004-12-17 10:57 51°19.42 2°52.21 -999 -999 -999 -999 -999
2004-12-17 10:58 51°19.386 2°52.145 -999 -999 -999 -999 -999
2004-12-17 10:59 51°19.353 2°52.083 -999 -999 -999 -999 -999
2004-12-17 11:00 51°19.319 2°52.014 -999 -999 -999 -999 -999
2004-12-17 11:01 51°19.287 2°51.941 -999 -999 -999 -999 -999
2004-12-17 11:02 51°19.257 2°51.869 -999 -999 -999 -999 -999
2004-12-17 11:03 51°19.225 2°51.8 -999 -999 -999 -999 -999
2004-12-17 11:04 51°19.189 2°51.739 -999 -999 -999 -999 -999
2004-12-17 11:05 51°19.151 2°51.68 -999 -999 -999 -999 -999
2004-12-17 11:06 51°19.113 2°51.626 -999 -999 -999 -999 -999
2004-12-17 11:07 51°19.077 2°51.57 -999 -999 -999 -999 -999
2004-12-17 11:08 51°19.04 2°51.513 -999 -999 -999 -999 -999
2004-12-17 11:09 51°19.001 2°51.459 -999 -999 -999 -999 -999
2004-12-17 11:10 51°18.961 2°51.404 -999 -999 -999 -999 -999
2004-12-17 11:11 51°18.919 2°51.351 -999 -999 -999 -999 -999
2004-12-17 11:12 51°18.876 2°51.296 -999 -999 -999 -999 -999
2004-12-17 11:13 51°18.833 2°51.245 -999 -999 -999 -999 -999
2004-12-17 11:14 51°18.79 2°51.198 -999 -999 -999 -999 -999
2004-12-17 11:15 51°18.748 2°51.145 -999 -999 -999 -999 -999
2004-12-17 11:16 51°18.706 2°51.089 -999 -999 -999 -999 -999
2004-12-17 11:17 51°18.669 2°51.028 -999 -999 -999 -999 -999
2004-12-17 11:18 51°18.629 2°50.978 -999 -999 -999 -999 -999
2004-12-17 11:19 51°18.588 2°50.928 -999 -999 -999 -999 -999
2004-12-17 11:20 51°18.545 2°50.874 -999 -999 -999 -999 -999
2004-12-17 11:21 51°18.501 2°50.819 -999 -999 -999 -999 -999
2004-12-17 11:22 51°18.459 2°50.763 -999 -999 -999 -999 -999
2004-12-17 11:23 51°18.417 2°50.708 -999 -999 -999 -999 -999
2004-12-17 11:24 51°18.377 2°50.65 -999 -999 -999 -999 -999
2004-12-17 11:25 51°18.346 2°50.591 -999 -999 -999 -999 -999
2004-12-17 11:26 51°18.33 2°50.541 -999 -999 -999 -999 -999
2004-12-17 11:27 51°18.319 2°50.498 -999 -999 -999 -999 -999
2004-12-17 11:28 51°18.31 2°50.382 -999 -999 -999 -999 -999
2004-12-17 11:29 51°18.386 2°50.296 -999 -999 -999 -999 -999
2004-12-17 11:30 51°18.524 2°50.412 -999 -999 -999 -999 -999
2004-12-17 11:31 51°18.645 2°50.665 -999 -999 -999 -999 -999
2004-12-17 11:32 51°18.727 2°50.966 -999 -999 -999 -999 -999
2004-12-17 11:33 51°18.801 2°51.267 -999 -999 -999 -999 -999
2004-12-17 11:34 51°18.874 2°51.569 -999 -999 -999 -999 -999
2004-12-17 11:35 51°18.952 2°51.876 -999 -999 -999 -999 -999
2004-12-17 11:36 51°19.027 2°52.181 -999 -999 -999 -999 -999
2004-12-17 11:37 51°19.105 2°52.484 -999 -999 -999 -999 -999
2004-12-17 11:38 51°19.182 2°52.79 -999 -999 -999 -999 -999
2004-12-17 11:39 51°19.263 2°53.093 -999 -999 -999 -999 -999
2004-12-17 11:40 51°19.342 2°53.394 -999 -999 -999 -999 -999
2004-12-17 11:41 51°19.416 2°53.699 -999 -999 -999 -999 -999
2004-12-17 11:42 51°19.498 2°53.995 -999 -999 -999 -999 -999
2004-12-17 11:43 51°19.574 2°54.299 -999 -999 -999 -999 -999
2004-12-17 11:44 51°19.653 2°54.599 -999 -999 -999 -999 -999
2004-12-17 11:45 51°19.731 2°54.9 -999 -999 -999 -999 -999
2004-12-17 11:46 51°19.809 2°55.202 -999 -999 -999 -999 -999
2004-12-17 11:47 51°19.889 2°55.504 -999 -999 -999 -999 -999
2004-12-17 11:48 51°19.973 2°55.801 -999 -999 -999 -999 -999
2004-12-17 11:49 51°20.053 2°56.098 -999 -999 -999 -999 -999
2004-12-17 11:50 51°20.137 2°56.397 -999 -999 -999 -999 -999
2004-12-17 11:51 51°20.219 2°56.692 -999 -999 -999 -999 -999
2004-12-17 11:52 51°20.295 2°56.987 -999 -999 -999 -999 -999
2004-12-17 11:53 51°20.372 2°57.282 -999 -999 -999 -999 -999
2004-12-17 11:54 51°20.452 2°57.576 -999 -999 -999 -999 -999
2004-12-17 11:55 51°20.531 2°57.87 -999 -999 -999 -999 -999
2004-12-17 11:56 51°20.616 2°58.163 -999 -999 -999 -999 -999
2004-12-17 11:57 51°20.69 2°58.462 -999 -999 -999 -999 -999
2004-12-17 11:58 51°20.775 2°58.759 -999 -999 -999 -999 -999
2004-12-17 11:59 51°20.856 2°59.059 -999 -999 -999 -999 -999
2004-12-17 12:00 51°20.938 2°59.357 -999 -999 -999 -999 -999
2004-12-17 12:01 51°21.009 2°59.562 -999 -999 -999 -999 -999
2004-12-17 12:02 51°21.069 2°59.7 -999 -999 -999 -999 -999
2004-12-17 12:03 51°21.102 2°59.773 -999 -999 -999 -999 -999
2004-12-17 12:04 51°21.121 2°59.773 -999 -999 -999 -999 -999
2004-12-17 12:05 51°21.151 2°59.79 -999 -999 -999 -999 -999
2004-12-17 12:06 51°21.183 2°59.852 -999 -999 -999 -999 -999
2004-12-17 12:07 51°21.198 2°59.932 -999 -999 -999 -999 -999
2004-12-17 12:08 51°21.207 3°0.015 -999 -999 -999 -999 -999
2004-12-17 12:09 51°21.212 3°0.097 -999 -999 -999 -999 -999
2004-12-17 12:10 51°21.223 3°0.174 -999 -999 -999 -999 -999
2004-12-17 12:11 51°21.241 3°0.248 -999 -999 -999 -999 -999
2004-12-17 12:12 51°21.246 3°0.327 -999 -999 -999 -999 -999
2004-12-17 12:13 51°21.241 3°0.408 -999 -999 -999 -999 -999
2004-12-17 12:14 51°21.234 3°0.487 -999 -999 -999 -999 -999
2004-12-17 12:15 51°21.226 3°0.567 -999 -999 -999 -999 -999
2004-12-17 12:16 51°21.215 3°0.645 -999 -999 -999 -999 -999
2004-12-17 12:17 51°21.209 3°0.723 -999 -999 -999 -999 -999
2004-12-17 12:18 51°21.211 3°0.801 -999 -999 -999 -999 -999
2004-12-17 12:19 51°21.218 3°0.876 -999 -999 -999 -999 -999
2004-12-17 12:20 51°21.229 3°0.95 -999 -999 -999 -999 -999
2004-12-17 12:21 51°21.235 3°1.026 -999 -999 -999 -999 -999
2004-12-17 12:22 51°21.246 3°1.1 -999 -999 -999 -999 -999
2004-12-17 12:23 51°21.262 3°1.172 -999 -999 -999 -999 -999
2004-12-17 12:24 51°21.274 3°1.245 -999 -999 -999 -999 -999
2004-12-17 12:25 51°21.275 3°1.322 -999 -999 -999 -999 -999
2004-12-17 12:26 51°21.273 3°1.4 -999 -999 -999 -999 -999
2004-12-17 12:27 51°21.276 3°1.476 -999 -999 -999 -999 -999
2004-12-17 12:28 51°21.277 3°1.554 -999 -999 -999 -999 -999
2004-12-17 12:29 51°21.268 3°1.635 -999 -999 -999 -999 -999
2004-12-17 12:30 51°21.255 3°1.715 -999 -999 -999 -999 -999
2004-12-17 12:31 51°21.242 3°1.796 -999 -999 -999 -999 -999
2004-12-17 12:32 51°21.233 3°1.878 -999 -999 -999 -999 -999
2004-12-17 12:33 51°21.229 3°1.959 -999 -999 -999 -999 -999
2004-12-17 12:34 51°21.225 3°2.041 -999 -999 -999 -999 -999
2004-12-17 12:35 51°21.217 3°2.116 -999 -999 -999 -999 -999
2004-12-17 12:36 51°21.2 3°2.148 -999 -999 -999 -999 -999
2004-12-17 12:37 51°21.185 3°2.16 -999 -999 -999 -999 -999
2004-12-17 12:38 51°21.16 3°2.177 -999 -999 -999 -999 -999
2004-12-17 12:39 51°21.11 3°2.172 -999 -999 -999 -999 -999
2004-12-17 12:40 51°21.053 3°2.123 -999 -999 -999 -999 -999
2004-12-17 12:41 51°21.005 3°2.052 -999 -999 -999 -999 -999
2004-12-17 12:42 51°20.969 3°1.975 -999 -999 -999 -999 -999
2004-12-17 12:43 51°20.937 3°1.898 -999 -999 -999 -999 -999
2004-12-17 12:44 51°20.908 3°1.824 -999 -999 -999 -999 -999
2004-12-17 12:45 51°20.884 3°1.75 -999 -999 -999 -999 -999
2004-12-17 12:46 51°20.861 3°1.674 -999 -999 -999 -999 -999
2004-12-17 12:47 51°20.837 3°1.598 -999 -999 -999 -999 -999
2004-12-17 12:48 51°20.814 3°1.52 -999 -999 -999 -999 -999
2004-12-17 12:49 51°20.788 3°1.443 -999 -999 -999 -999 -999
2004-12-17 12:50 51°20.759 3°1.366 -999 -999 -999 -999 -999
2004-12-17 12:51 51°20.732 3°1.29 -999 -999 -999 -999 -999
2004-12-17 12:52 51°20.705 3°1.214 -999 -999 -999 -999 -999
2004-12-17 12:53 51°20.682 3°1.135 -999 -999 -999 -999 -999
2004-12-17 12:54 51°20.66 3°1.054 -999 -999 -999 -999 -999
2004-12-17 12:55 51°20.643 3°0.971 -999 -999 -999 -999 -999
2004-12-17 12:56 51°20.629 3°0.885 -999 -999 -999 -999 -999
2004-12-17 12:57 51°20.617 3°0.798 -999 -999 -999 -999 -999
2004-12-17 12:58 51°20.608 3°0.711 -999 -999 -999 -999 -999
2004-12-17 12:59 51°20.602 3°0.63 -999 -999 -999 -999 -999
2004-12-17 13:00 51°20.596 3°0.545 -999 -999 -999 -999 -999
2004-12-17 13:01 51°20.591 3°0.458 -999 -999 -999 -999 -999
2004-12-17 13:02 51°20.587 3°0.374 -999 -999 -999 -999 -999
2004-12-17 13:03 51°20.582 3°0.293 -999 -999 -999 -999 -999
2004-12-17 13:04 51°20.577 3°0.21 -999 -999 -999 -999 -999
2004-12-17 13:05 51°20.572 3°0.126 -999 -999 -999 -999 -999
2004-12-17 13:06 51°20.569 3°0.042 -999 -999 -999 -999 -999
2004-12-17 13:07 51°20.567 2°59.959 -999 -999 -999 -999 -999
2004-12-17 13:08 51°20.567 2°59.874 -999 -999 -999 -999 -999
2004-12-17 13:09 51°20.569 2°59.792 -999 -999 -999 -999 -999
2004-12-17 13:10 51°20.572 2°59.723 -999 -999 -999 -999 -999
2004-12-17 13:11 51°20.573 2°59.67 -999 -999 -999 -999 -999
2004-12-17 13:12 51°20.572 2°59.606 -999 -999 -999 -999 -999
2004-12-17 13:13 51°20.618 2°59.526 -999 -999 -999 -999 -999
2004-12-17 13:14 51°20.695 2°59.584 -999 -999 -999 -999 -999
2004-12-17 13:15 51°20.838 2°59.761 -999 -999 -999 -999 -999
2004-12-17 13:16 51°20.986 3°0.002 -999 -999 -999 -999 -999
2004-12-17 13:17 51°21.132 3°0.253 -999 -999 -999 -999 -999
2004-12-17 13:18 51°21.281 3°0.505 -999 -999 -999 -999 -999
2004-12-17 13:19 51°21.426 3°0.763 -999 -999 -999 -999 -999
2004-12-17 13:20 51°21.575 3°1.013 -999 -999 -999 -999 -999
2004-12-17 13:21 51°21.722 3°1.263 -999 -999 -999 -999 -999
2004-12-17 13:22 51°21.868 3°1.517 -999 -999 -999 -999 -999
2004-12-17 13:23 51°22.014 3°1.771 -999 -999 -999 -999 -999
2004-12-17 13:24 51°22.163 3°2.023 -999 -999 -999 -999 -999
2004-12-17 13:25 51°22.317 3°2.263 -999 -999 -999 -999 -999
2004-12-17 13:26 51°22.473 3°2.497 -999 -999 -999 -999 -999
2004-12-17 13:27 51°22.629 3°2.733 -999 -999 -999 -999 -999
2004-12-17 13:28 51°22.787 3°2.974 -999 -999 -999 -999 -999
2004-12-17 13:29 51°22.94 3°3.215 -999 -999 -999 -999 -999
2004-12-17 13:30 51°23.104 3°3.442 -999 -999 -999 -999 -999
2004-12-17 13:31 51°23.274 3°3.662 -999 -999 -999 -999 -999
2004-12-17 13:32 51°23.449 3°3.868 -999 -999 -999 -999 -999
2004-12-17 13:33 51°23.63 3°4.062 -999 -999 -999 -999 -999
2004-12-17 13:34 51°23.811 3°4.26 -999 -999 -999 -999 -999
2004-12-17 13:35 51°23.99 3°4.46 -999 -999 -999 -999 -999
2004-12-17 13:36 51°24.169 3°4.66 -999 -999 -999 -999 -999
2004-12-17 13:37 51°24.352 3°4.851 -999 -999 -999 -999 -999
2004-12-17 13:38 51°24.516 3°5.074 -999 -999 -999 -999 -999
2004-12-17 13:39 51°24.651 3°5.345 -999 -999 -999 -999 -999
2004-12-17 13:40 51°24.777 3°5.625 -999 -999 -999 -999 -999
2004-12-17 13:41 51°24.894 3°5.921 -999 -999 -999 -999 -999
2004-12-17 13:42 51°25.016 3°6.204 -999 -999 -999 -999 -999
2004-12-17 13:43 51°25.2 3°6.36 -999 -999 -999 -999 -999
2004-12-17 13:44 51°25.392 3°6.497 -999 -999 -999 -999 -999
2004-12-17 13:45 51°25.574 3°6.657 -999 -999 -999 -999 -999
2004-12-17 13:46 51°25.741 3°6.863 -999 -999 -999 -999 -999
2004-12-17 13:47 51°25.872 3°7.129 -999 -999 -999 -999 -999
2004-12-17 13:48 51°26.007 3°7.388 -999 -999 -999 -999 -999
2004-12-17 13:49 51°26.138 3°7.651 -999 -999 -999 -999 -999
2004-12-17 13:50 51°26.272 3°7.917 -999 -999 -999 -999 -999
2004-12-17 13:51 51°26.385 3°8.176 -999 -999 -999 -999 -999
2004-12-17 13:52 51°26.442 3°8.28 -999 -999 -999 -999 -999
2004-12-17 13:53 51°26.446 3°8.285 -999 -999 -999 -999 -999
2004-12-17 13:54 51°26.474 3°8.275 -999 -999 -999 -999 -999
2004-12-17 13:55 51°26.514 3°8.302 -999 -999 -999 -999 -999
2004-12-17 13:56 51°26.544 3°8.364 -999 -999 -999 -999 -999
2004-12-17 13:57 51°26.568 3°8.437 -999 -999 -999 -999 -999
2004-12-17 13:58 51°26.592 3°8.509 -999 -999 -999 -999 -999
2004-12-17 13:59 51°26.619 3°8.581 -999 -999 -999 -999 -999
2004-12-17 14:00 51°26.65 3°8.644 -999 -999 -999 -999 -999
2004-12-17 14:01 51°26.684 3°8.696 -999 -999 -999 -999 -999
2004-12-17 14:02 51°26.717 3°8.749 -999 -999 -999 -999 -999
2004-12-17 14:03 51°26.747 3°8.81 -999 -999 -999 -999 -999
2004-12-17 14:04 51°26.779 3°8.866 -999 -999 -999 -999 -999
2004-12-17 14:05 51°26.812 3°8.919 -999 -999 -999 -999 -999
2004-12-17 14:06 51°26.846 3°8.969 -999 -999 -999 -999 -999
2004-12-17 14:07 51°26.882 3°9.014 -999 -999 -999 -999 -999
2004-12-17 14:08 51°26.917 3°9.058 -999 -999 -999 -999 -999
2004-12-17 14:09 51°26.954 3°9.101 -999 -999 -999 -999 -999
2004-12-17 14:10 51°26.991 3°9.144 -999 -999 -999 -999 -999
2004-12-17 14:11 51°27.029 3°9.185 -999 -999 -999 -999 -999
2004-12-17 14:12 51°27.068 3°9.224 -999 -999 -999 -999 -999
2004-12-17 14:13 51°27.107 3°9.262 -999 -999 -999 -999 -999
2004-12-17 14:14 51°27.142 3°9.307 -999 -999 -999 -999 -999
2004-12-17 14:15 51°27.178 3°9.357 -999 -999 -999 -999 -999
2004-12-17 14:16 51°27.214 3°9.407 -999 -999 -999 -999 -999
2004-12-17 14:17 51°27.25 3°9.455 -999 -999 -999 -999 -999
2004-12-17 14:18 51°27.286 3°9.503 -999 -999 -999 -999 -999
2004-12-17 14:19 51°27.323 3°9.552 -999 -999 -999 -999 -999
2004-12-17 14:20 51°27.36 3°9.601 -999 -999 -999 -999 -999
2004-12-17 14:21 51°27.398 3°9.652 -999 -999 -999 -999 -999
2004-12-17 14:22 51°27.435 3°9.701 -999 -999 -999 -999 -999
2004-12-17 14:23 51°27.471 3°9.752 -999 -999 -999 -999 -999
2004-12-17 14:24 51°27.508 3°9.806 -999 -999 -999 -999 -999
2004-12-17 14:25 51°27.539 3°9.866 -999 -999 -999 -999 -999
2004-12-17 14:26 51°27.537 3°9.939 -999 -999 -999 -999 -999
2004-12-17 14:27 51°27.521 3°9.995 -999 -999 -999 -999 -999
2004-12-17 14:28 51°27.5 3°10.041 -999 -999 -999 -999 -999
2004-12-17 14:29 51°27.458 3°10.097 -999 -999 -999 -999 -999
2004-12-17 14:30 51°27.39 3°10.125 -999 -999 -999 -999 -999
2004-12-17 14:31 51°27.321 3°10.119 -999 -999 -999 -999 -999
2004-12-17 14:32 51°27.262 3°10.086 -999 -999 -999 -999 -999
2004-12-17 14:33 51°27.215 3°10.038 -999 -999 -999 -999 -999
2004-12-17 14:34 51°27.175 3°9.985 -999 -999 -999 -999 -999
2004-12-17 14:35 51°27.144 3°9.931 -999 -999 -999 -999 -999
2004-12-17 14:36 51°27.118 3°9.877 -999 -999 -999 -999 -999
2004-12-17 14:37 51°27.096 3°9.824 -999 -999 -999 -999 -999
2004-12-17 14:38 51°27.078 3°9.771 -999 -999 -999 -999 -999
2004-12-17 14:39 51°27.058 3°9.72 -999 -999 -999 -999 -999
2004-12-17 14:40 51°27.041 3°9.669 -999 -999 -999 -999 -999
2004-12-17 14:41 51°27.026 3°9.622 -999 -999 -999 -999 -999
2004-12-17 14:42 51°27.013 3°9.574 -999 -999 -999 -999 -999
2004-12-17 14:43 51°27.003 3°9.513 -999 -999 -999 -999 -999
2004-12-17 14:44 51°26.986 3°9.454 -999 -999 -999 -999 -999
2004-12-17 14:45 51°26.971 3°9.396 -999 -999 -999 -999 -999
2004-12-17 14:46 51°26.961 3°9.337 -999 -999 -999 -999 -999
2004-12-17 14:47 51°26.954 3°9.278 -999 -999 -999 -999 -999
2004-12-17 14:48 51°26.946 3°9.219 -999 -999 -999 -999 -999
2004-12-17 14:49 51°26.936 3°9.16 -999 -999 -999 -999 -999
2004-12-17 14:50 51°26.921 3°9.102 -999 -999 -999 -999 -999
2004-12-17 14:51 51°26.901 3°9.046 -999 -999 -999 -999 -999
2004-12-17 14:52 51°26.882 3°8.987 -999 -999 -999 -999 -999
2004-12-17 14:53 51°26.868 3°8.93 -999 -999 -999 -999 -999
2004-12-17 14:54 51°26.859 3°8.873 -999 -999 -999 -999 -999
2004-12-17 14:55 51°26.855 3°8.818 -999 -999 -999 -999 -999
2004-12-17 14:56 51°26.85 3°8.763 -999 -999 -999 -999 -999
2004-12-17 14:57 51°26.844 3°8.708 -999 -999 -999 -999 -999
2004-12-17 14:58 51°26.832 3°8.653 -999 -999 -999 -999 -999
2004-12-17 14:59 51°26.811 3°8.601 -999 -999 -999 -999 -999
2004-12-17 15:00 51°26.785 3°8.551 -999 -999 -999 -999 -999
2004-12-17 15:01 51°26.754 3°8.506 -999 -999 -999 -999 -999
2004-12-17 15:02 51°26.734 3°8.48 -999 -999 -999 -999 -999
2004-12-17 15:03 51°26.721 3°8.472 -999 -999 -999 -999 -999
2004-12-17 15:04 51°26.711 3°8.471 -999 -999 -999 -999 -999
2004-12-17 15:05 51°26.678 3°8.357 -999 -999 -999 -999 -999
2004-12-17 15:06 51°26.515 3°8.165 -999 -999 -999 -999 -999
2004-12-17 15:07 51°26.33 3°7.973 -999 -999 -999 -999 -999
2004-12-17 15:08 51°26.148 3°7.783 -999 -999 -999 -999 -999
2004-12-17 15:09 51°25.968 3°7.592 -999 -999 -999 -999 -999
2004-12-17 15:10 51°25.793 3°7.391 -999 -999 -999 -999 -999
2004-12-17 15:11 51°25.62 3°7.191 -999 -999 -999 -999 -999
2004-12-17 15:12 51°25.447 3°6.991 -999 -999 -999 -999 -999
2004-12-17 15:13 51°25.274 3°6.792 -999 -999 -999 -999 -999
2004-12-17 15:14 51°25.101 3°6.594 -999 -999 -999 -999 -999
2004-12-17 15:15 51°24.929 3°6.397 -999 -999 -999 -999 -999
2004-12-17 15:16 51°24.756 3°6.201 -999 -999 -999 -999 -999
2004-12-17 15:17 51°24.573 3°6.028 -999 -999 -999 -999 -999
2004-12-17 15:18 51°24.387 3°5.869 -999 -999 -999 -999 -999
2004-12-17 15:19 51°24.201 3°5.709 -999 -999 -999 -999 -999
2004-12-17 15:20 51°24.014 3°5.547 -999 -999 -999 -999 -999
2004-12-17 15:21 51°23.829 3°5.384 -999 -999 -999 -999 -999
2004-12-17 15:22 51°23.65 3°5.219 -999 -999 -999 -999 -999
2004-12-17 15:23 51°23.475 3°5.053 -999 -999 -999 -999 -999
2004-12-17 15:24 51°23.306 3°4.874 -999 -999 -999 -999 -999
2004-12-17 15:25 51°23.141 3°4.688 -999 -999 -999 -999 -999
2004-12-17 15:26 51°22.982 3°4.49 -999 -999 -999 -999 -999
2004-12-17 15:27 51°22.829 3°4.288 -999 -999 -999 -999 -999
2004-12-17 15:28 51°22.679 3°4.076 -999 -999 -999 -999 -999
2004-12-17 15:29 51°22.528 3°3.864 -999 -999 -999 -999 -999
2004-12-17 15:30 51°22.383 3°3.646 -999 -999 -999 -999 -999
2004-12-17 15:31 51°22.237 3°3.427 -999 -999 -999 -999 -999
2004-12-17 15:32 51°22.098 3°3.203 -999 -999 -999 -999 -999
2004-12-17 15:33 51°21.96 3°2.976 -999 -999 -999 -999 -999
2004-12-17 15:34 51°21.822 3°2.751 -999 -999 -999 -999 -999
2004-12-17 15:35 51°21.696 3°2.514 -999 -999 -999 -999 -999
2004-12-17 15:36 51°21.573 3°2.274 -999 -999 -999 -999 -999
2004-12-17 15:37 51°21.453 3°2.032 -999 -999 -999 -999 -999
2004-12-17 15:38 51°21.338 3°1.785 -999 -999 -999 -999 -999
2004-12-17 15:39 51°21.22 3°1.541 -999 -999 -999 -999 -999
2004-12-17 15:40 51°21.105 3°1.292 -999 -999 -999 -999 -999
2004-12-17 15:41 51°20.988 3°1.043 -999 -999 -999 -999 -999
2004-12-17 15:42 51°20.875 3°0.791 -999 -999 -999 -999 -999
2004-12-17 15:43 51°20.761 3°0.543 -999 -999 -999 -999 -999
2004-12-17 15:44 51°20.645 3°0.295 -999 -999 -999 -999 -999
2004-12-17 15:45 51°20.531 3°0.045 -999 -999 -999 -999 -999
2004-12-17 15:46 51°20.417 2°59.796 -999 -999 -999 -999 -999
2004-12-17 15:47 51°20.303 2°59.546 -999 -999 -999 -999 -999
2004-12-17 15:48 51°20.189 2°59.295 -999 -999 -999 -999 -999
2004-12-17 15:49 51°20.075 2°59.047 -999 -999 -999 -999 -999
2004-12-17 15:50 51°19.97 2°58.786 -999 -999 -999 -999 -999
2004-12-17 15:51 51°19.863 2°58.527 -999 -999 -999 -999 -999
2004-12-17 15:52 51°19.76 2°58.261 -999 -999 -999 -999 -999
2004-12-17 15:53 51°19.662 2°57.99 -999 -999 -999 -999 -999
2004-12-17 15:54 51°19.563 2°57.719 -999 -999 -999 -999 -999
2004-12-17 15:55 51°19.464 2°57.448 -999 -999 -999 -999 -999
2004-12-17 15:56 51°19.362 2°57.179 -999 -999 -999 -999 -999
2004-12-17 15:57 51°19.253 2°56.915 -999 -999 -999 -999 -999
2004-12-17 15:58 51°19.138 2°56.658 -999 -999 -999 -999 -999
2004-12-17 15:59 51°19.017 2°56.41 -999 -999 -999 -999 -999
2004-12-17 16:00 51°18.897 2°56.155 -999 -999 -999 -999 -999
2004-12-17 16:01 51°18.777 2°55.905 -999 -999 -999 -999 -999
2004-12-17 16:02 51°18.653 2°55.656 -999 -999 -999 -999 -999
2004-12-17 16:03 51°18.522 2°55.421 -999 -999 -999 -999 -999
2004-12-17 16:04 51°18.393 2°55.182 -999 -999 -999 -999 -999
2004-12-17 16:05 51°18.26 2°54.947 -999 -999 -999 -999 -999
2004-12-17 16:06 51°18.12 2°54.727 -999 -999 -999 -999 -999
2004-12-17 16:07 51°17.976 2°54.511 -999 -999 -999 -999 -999
2004-12-17 16:08 51°17.834 2°54.287 -999 -999 -999 -999 -999
2004-12-17 16:09 51°17.691 2°54.067 -999 -999 -999 -999 -999
2004-12-17 16:10 51°17.541 2°53.862 -999 -999 -999 -999 -999
2004-12-17 16:11 51°17.377 2°53.679 -999 -999 -999 -999 -999
2004-12-17 16:12 51°17.208 2°53.504 -999 -999 -999 -999 -999
2004-12-17 16:13 51°17.029 2°53.354 -999 -999 -999 -999 -999
2004-12-17 16:14 51°16.826 2°53.301 -999 -999 -999 -999 -999
2004-12-17 16:15 51°16.614 2°53.387 -999 -999 -999 -999 -999
2004-12-17 16:16 51°16.416 2°53.556 -999 -999 -999 -999 -999
2004-12-17 16:17 51°16.217 2°53.701 -999 -999 -999 -999 -999
2004-12-17 16:18 51°16.015 2°53.828 -999 -999 -999 -999 -999
2004-12-17 16:19 51°15.822 2°54.002 -999 -999 -999 -999 -999
2004-12-17 16:20 51°15.618 2°54.15 -999 -999 -999 -999 -999
2004-12-17 16:21 51°15.401 2°54.246 -999 -999 -999 -999 -999
2004-12-17 16:22 51°15.197 2°54.358 -999 -999 -999 -999 -999
2004-12-17 16:23 51°14.988 2°54.465 -999 -999 -999 -999 -999
2004-12-17 16:24 51°14.789 2°54.578 -999 -999 -999 -999 -999
2004-12-17 16:25 51°14.599 2°54.72 -999 -999 -999 -999 -999
2004-12-17 16:26 51°14.431 2°54.909 -999 -999 -999 -999 -999
2004-12-17 16:27 51°14.308 2°55.179 -999 -999 -999 -999 -999
2004-12-17 16:28 51°14.201 2°55.344 -999 -999 -999 -999 -999
2004-12-17 16:29 51°14.094 2°55.437 -999 -999 -999 -999 -999
2004-12-17 16:30 51°14.008 2°55.502 -999 -999 -999 -999 -999
2004-12-17 16:31 51°13.935 2°55.551 -999 -999 -999 -999 -999
2004-12-17 16:32 51°13.871 2°55.596 -999 -999 -999 -999 -999
2004-12-17 16:33 51°13.811 2°55.641 -999 -999 -999 -999 -999
2004-12-17 16:34 51°13.769 2°55.692 -999 -999 -999 -999 -999
2004-12-17 16:35 51°13.731 2°55.759 -999 -999 -999 -999 -999
2004-12-17 16:36 51°13.702 2°55.814 -999 -999 -999 -999 -999
2004-12-17 16:37 51°13.675 2°55.865 -999 -999 -999 -999 -999
2004-12-17 16:38 51°13.668 2°55.876 -999 -999 -999 -999 -999
2004-12-17 16:39 51°13.665 2°55.872 -999 -999 -999 -999 -999
2004-12-17 16:40 51°13.651 2°55.908 -999 -999 -999 -999 -999
2004-12-17 16:41 51°13.644 2°55.929 -999 -999 -999 -999 -999
2004-12-17 16:42 51°13.635 2°55.96 -999 -999 -999 -999 -999
2004-12-17 16:43 51°13.635 2°55.963 -999 -999 -999 -999 -999
2004-12-17 16:44 51°13.653 2°55.927 -999 -999 -999 -999 -999
2004-12-17 16:45 51°13.655 2°55.916 -999 -999 -999 -999 -999
2004-12-17 16:46 51°13.642 2°55.942 -999 -999 -999 -999 -999
2004-12-17 16:47 51°13.621 2°56.01 -999 -999 -999 -999 -999
2004-12-17 16:48 51°13.601 2°56.083 -999 -999 -999 -999 -999
2004-12-17 16:49 51°13.592 2°56.096 -999 -999 -999 -999 -999
2004-12-17 16:50 51°13.587 2°56.102 -999 -999 -999 -999 -999
2004-12-17 16:51 51°13.572 2°56.107 -999 -999 -999 -999 -999
2004-12-17 16:52 51°13.565 2°56.133 -999 -999 -999 -999 -999
2004-12-17 16:53 51°13.551 2°56.155 -999 -999 -999 -999 -999
2004-12-17 16:54 51°13.545 2°56.17 -999 -999 -999 -999 -999
2004-12-17 16:55 51°13.553 2°56.178 -999 -999 -999 -999 -999
2004-12-17 16:56 51°13.54 2°56.196 -999 -999 -999 -999 -999
2004-12-17 16:57 51°13.564 2°56.142 -999 -999 -999 -999 -999
2004-12-17 16:58 51°13.586 2°56.089 -999 -999 -999 -999 -999
2004-12-17 16:59 51°13.595 2°56.079 -999 -999 -999 -999 -999
2004-12-17 17:00 51°13.597 2°56.081 -999 -999 -999 -999 -999
2004-12-17 17:01 51°13.598 2°56.083 -999 -999 -999 -999 -999
2004-12-17 17:02 51°13.597 2°56.086 -999 -999 -999 -999 -999
2004-12-17 17:03 51°13.597 2°56.087 -999 -999 -999 -999 -999
2004-12-17 17:04 51°13.597 2°56.087 -999 -999 -999 -999 -999
2004-12-17 17:05 51°13.597 2°56.087 -999 -999 -999 -999 -999
2004-12-17 17:06 51°13.597 2°56.088 -999 -999 -999 -999 -999
2004-12-17 17:07 51°13.598 2°56.088 -999 -999 -999 -999 -999
2004-12-17 17:08 51°13.597 2°56.088 -999 -999 -999 -999 -999